Regional Weather Roundup
Issued by NWS Midland/Odessa, TX

Skip options and go directly to product.
Home | Oldest Version | Previous Version | Current Version | All | Graphics & Text | Save Text | Print | Product List | Glossary On

Skip product version selection by date and time.   
830
ASUS44 KMAF 230710
RWRMAF
MIDLAND AREA WEATHER ROUNDUP
NATIONAL WEATHER SERVICE MIDLAND TX
100 AM CST SUN NOV 23 2014

...IN SOUTHWEST TEXAS AND SOUTHEAST NEW MEXICO...

CITY           SKY/WX    TMP DP  RH WIND       PRES   REMARKS
ALPINE         CLEAR     52  32  47 W9G24     29.93F
ANDREWS        FAIR      50  33  52 W10       29.73F
ARTESIA        NOT AVBL
BIG SPRING     CLEAR     51  49  92 SE8       29.72F
CARLSBAD       CLEAR     59  19  21 W21       29.72F
DRYDEN           N/A     54  40  59 W9        29.79F
FORT STOCKTON  CLEAR     51  37  58 SW14      29.80F
GUAD PASS      PTCLDY    49  18  29 SW32G47   29.83F
HOBBS          CLEAR     50  27  40 SW13      29.74F
MARFA          CLEAR     41  30  65 SW10      29.94F WCI  35
MIDLAND AIRPK  CLEAR     55  37  51 SW13      29.72F
MIDLAND INTL   CLEAR     53  37  54 SW15      29.72F
ODESSA         CLEAR     51  33  50 SW10      29.74F
PECOS          CLEAR     56  33  42 W17G23    29.76F
PRESIDIO       FAIR      51  38  60 CALM      29.90F
SEMINOLE       CLEAR     49  28  44 W10       29.73F
SNYDER         DRZL/FOG  52  52  99 S8        29.69F VSB 1/2
WINK           CLEAR     46  33  60 SW8       29.73F
$$
...OTHER STATIONS IN TEXAS...

CITY           SKY/WX    TMP DP  RH WIND       PRES   REMARKS
ABILENE        PTCLDY    53  51  93 S9        29.68F
AMARILLO       PTCLDY    50  22  33 SW18G24   29.55F
AUSTIN         CLOUDY    57  56  96 CALM      29.68F
BROWNSVILLE    CLOUDY    65  63  93 CALM      29.79F
CORPUS CHRISTI CLOUDY    64  60  87 S12       29.73F
DALLAS FTW     PTCLDY    53  53 100 SE6       29.65F
DEL RIO        CLEAR     51  49  92 CALM      29.76F
EL PASO        CLEAR     55  20  25 SW12      29.88F
HOUSTON INT    TSTM      65  63  93 S7        29.74S
LUBBOCK        MOCLDY    43  29  57 W10       29.65F WCI  37
SAN ANGELO     CLEAR     49  48  97 SW6       29.72F
SAN ANTONIO    MOCLDY    62  58  86 CALM      29.72F
WACO           CLOUDY    57  55  93 SE5       29.62F
WICHITA FALLS  NOT AVBL
$$
...OTHER LOCATIONS IN NEW MEXICO...

CITY           SKY/WX    TMP DP  RH WIND       PRES   REMARKS
ALAMAGORDO     PTCLDY    50  16  25 MISG      29.86F
ALBUQUERQUE    MOCLDY    50  17  27 W12       29.82F
CANNON AFB     MOCLDY    45  16  31 SW13      29.76R WCI  38
CLOVIS         CLOUDY    52  19  28 W22G28    29.63F
HOLLOMAN AFB   PTCLDY    48  17  29 S3        29.85R
ROSWELL        PTCLDY    47  25  42 SW12      29.71F
RUIDOSO        CLEAR     48  16  27 W17G26    29.84F
SANTA FE       CLOUDY    38  15  39 CALM      29.81F
TRUTH OR CONSE PTCLDY    48  17  29 W7        29.86F
TUCUMCARI        N/A     54  18  24 W22       29.59F
$$

USA.gov is the U.S. government's official web portal to all federal, state and local government web resources and services.